Stations météo

réclame
Mon MeteoGroup
Nice, France (7690): Température de l'air & dewpoint: 17.10.2019 17:00:00 - 23.10.2019 17:00:00 (CEST)Nice, France (7690): Température de l'air 5cm: 17.10.2019 17:00:00 - 23.10.2019 17:00:00 (CEST)Nice, France (7690): Température de l'air -20cm & Température de l'air -100cm: 17.10.2019 17:00:00 - 23.10.2019 17:00:00 (CEST)Nice, France (7690): Vitesse du vent & gusts: 17.10.2019 17:00:00 - 23.10.2019 17:00:00 (CEST)Nice, France (7690): Direction du vent: 17.10.2019 17:00:00 - 23.10.2019 17:00:00 (CEST)Nice, France (7690): reduced air pressure: 17.10.2019 17:00:00 - 23.10.2019 17:00:00 (CEST)Nice, France (7690): visibility: 17.10.2019 17:00:00 - 23.10.2019 17:00:00 (CEST)Nice, France (7690): Ensoleillement: 17.10.2019 17:00:00 - 23.10.2019 17:00:00 (CEST)Nice, France (7690): Quantités de précipitations: 17.10.2019 17:00:00 - 23.10.2019 17:00:00 (CEST)
Date & Time tt [°C] td [°C] tt 5cm [°C] tt -20cm [°C] tt -100cm [°C] ff [km/h] ff [knt] fx [km/h] fx [knt] dd ppp [hPa] vv [km] sd [min] rr [mm]
23.10.2019 17:00:00 22,4 14,3 21,2 20,9 21,9 47 25 68 37 E 1011,9 15 0 0,0
23.10.2019 16:00:00 22,5 14,3 18,1 20,9 21,9 51 28 75 40 E 1012,0 15 0 0,2
23.10.2019 15:00:00 22,8 15,1 19,0 20,9 21,9 46 25 72 39 E 1013,0 15 0 0,0
23.10.2019 14:00:00 22,7 14,8 17,6 20,9 21,9 52 28 70 38 E 1012,4 15 0 0,4
23.10.2019 13:00:00 24,5 12,1 22,5 20,9 21,9 43 23 58 32 ENE 1012,5 40 0 0,0
23.10.2019 12:00:00 22,7 12,0 19,2 20,9 21,9 19 11 45 24 NNE 1014,4 40 0 0,0
23.10.2019 11:00:00 20,9 13,8 17,8 20,9 21,9 24 13 56 30 NNE 1015,2 20 0 0,6
23.10.2019 10:00:00 22,8 14,6 17,7 20,9 21,9 44 24 68 37 E 1015,4 12 0 0,2
23.10.2019 09:00:00 23,5 13,9 17,0 20,9 21,9 46 25 66 36 E 1013,8 12 0 0,8
23.10.2019 08:00:00 23,3 14,8 22,1 20,9 22,0 41 22 59 32 E 1013,6 15 0 0,0
23.10.2019 07:00:00 23,3 15,1 22,3 20,9 22,0 38 21 51 27 ENE 1013,9 15 0 0,0
23.10.2019 06:00:00 23,4 15,4 22,2 20,9 22,0 38 20 49 27 ENE 1014,5 15 0 0,0
23.10.2019 05:00:00 23,4 15,4 22,1 20,9 22,0 37 20 49 27 E 1015,0 15 0 0,0
23.10.2019 04:00:00 23,2 15,3 22,3 20,9 22,0 32 17 50 27 E 1015,0 20 0 0,0
23.10.2019 03:00:00 23,9 14,0 22,2 20,9 22,0 37 20 55 30 E 1015,0 20 0 0,0
23.10.2019 02:00:00 24,8 12,7 22,5 20,9 22,0 39 21 55 30 ENE 1015,2 20 0 0,0
23.10.2019 01:00:00 23,4 14,7 21,8 20,9 22,0 34 18 45 24 E 1015,4 20 0 0,0
23.10.2019 00:00:00 23,5 14,2 21,7 20,9 22,0 28 15 41 22 ENE 1016,0 20 0 0,0
22.10.2019 23:00:00 23,1 16,2 21,8 20,9 22,0 23 13 38 21 ENE 1017,1 20 0 0,0
22.10.2019 22:00:00 23,0 16,3 20,2 20,9 22,0 32 18 39 21 ENE 1016,6 20 0 0,0
22.10.2019 21:00:00 24,1 13,9 22,3 20,9 22,0 27 15 48 26 ENE 1016,7 20 0 0,0
22.10.2019 20:00:00 23,0 16,8 21,5 20,9 22,0 24 13 44 24 E 1017,2 20 0 0,0
22.10.2019 19:00:00 23,1 17,1 22,1 20,9 22,0 23 12 34 19 E 1017,1 20 0 0,0
22.10.2019 18:00:00 23,2 17,0 22,3 20,9 22,0 20 11 47 25 ENE 1016,4 20 10 0,0
22.10.2019 17:00:00 23,2 17,6 23,8 20,9 22,0 32 17 42 23 E 1017,1 20 39 0,0
22.10.2019 16:00:00 23,4 16,9 24,1 20,9 22,0 31 17 48 26 ENE 1017,6 20 35 0,0
22.10.2019 15:00:00 23,1 17,6 23,8 20,9 22,0 32 18 55 30 E 1017,6 20 15 0,0
22.10.2019 14:00:00 23,2 17,6 23,6 20,9 22,1 42 23 57 31 E 1018,1 20 0 0,0
22.10.2019 13:00:00 22,7 17,6 23,1 20,9 22,1 37 20 52 28 ENE 1019,2 20 0 0,0
22.10.2019 12:00:00 22,3 18,3 23,2 20,9 22,0 37 20 44 24 E 1019,5 10 30 0,0
22.10.2019 11:00:00 22,3 18,1 22,6 20,9 22,1 30 16 43 23 ENE 1020,0 20 1 0,0
22.10.2019 10:00:00 21,6 17,0 18,8 20,9 22,0 19 10 33 18 NE 1019,9 30 6 0,0
22.10.2019 09:00:00 18,6 15,1 17,8 21,0 22,1 10 6 19 10 NNW 1020,1 30 0 0,0
22.10.2019 08:00:00 18,4 14,9 17,5 20,9 22,0 9 5 17 9 N 1019,5 53 0 0,0
22.10.2019 07:00:00 18,3 14,6 17,7 20,9 22,1 10 5 27 14 NNW 1019,5 20 0 0,0
22.10.2019 06:00:00 19,6 15,9 18,0 20,9 22,1 13 7 24 13 NE 1019,8 40 0 0,0
22.10.2019 05:00:00 18,9 15,0 18,0 20,9 22,0 9 5 19 10 N 1019,6 40 0 0,0
22.10.2019 04:00:00 18,7 14,8 17,9 20,9 22,1 14 8 20 11 N 1019,4 40 0 0,0
22.10.2019 03:00:00 18,6 14,9 17,8 21,0 22,1 13 7 19 11 NNW 1020,1 40 0 0,0
22.10.2019 02:00:00 18,7 14,8 17,8 20,9 22,1 10 6 15 8 NNW 1020,5 20 0 0,0
22.10.2019 01:00:00 18,6 14,9 17,6 20,9 22,0 10 5 16 9 NNW 1020,2 20 0 0,0
22.10.2019 00:00:00 18,6 15,1 17,7 20,9 22,1 11 6 18 10 NNW 1020,4 20 0 0,0
21.10.2019 23:00:00 19,5 15,2 17,8 20,9 22,1 11 6 23 12 N 1020,0 20 0 0,0
21.10.2019 22:00:00 18,9 15,2 17,9 20,9 22,1 8 4 19 11 N 1020,0 20 0 0,0
21.10.2019 21:00:00 19,0 15,7 18,0 20,9 22,1 10 5 16 9 NNW 1020,2 20 0 0,0
21.10.2019 20:00:00 19,3 16,1 18,0 20,9 22,1 8 5 17 9 NW 1020,2 20 0 0,0
21.10.2019 19:00:00 19,5 17,1 18,5 20,9 22,1 10 5 16 9 WNW 1020,2 20 0 0,0
21.10.2019 18:00:00 19,3 16,3 19,1 20,9 22,1 8 4 14 7 SW 1019,4 15 5 0,0
21.10.2019 17:00:00 19,9 16,3 19,5 20,9 22,1 9 5 13 7 W 1019,7 25 0 0,0
21.10.2019 16:00:00 20,1 16,7 20,0 20,9 22,1 6 3 13 7 WSW 1020,1 25 0 0,0
21.10.2019 15:00:00 19,6 17,7 19,5 21,0 22,1 10 5 16 9 W 1020,1 25 0 0,0
21.10.2019 14:00:00 19,1 17,6 18,3 21,0 22,1 9 5 16 9 WNW 1020,1 14 0 0,2
21.10.2019 13:00:00 19,7 17,1 19,3 20,9 22,1 6 3 16 9 NNW 1020,1 15 7 0,0
21.10.2019 12:00:00 18,8 17,1 17,6 21,0 22,1 9 5 15 8 NNE 1020,4 20 0 0,0
21.10.2019 11:00:00 17,8 16,7 17,0 21,0 22,1 9 5 20 11 NNE 1020,6 10 0 2,8
21.10.2019 10:00:00 18,1 16,1 17,0 21,0 22,1 16 9 26 14 NNW 1020,1 11 0 0,4
21.10.2019 09:00:00 18,3 15,7 16,9 21,0 22,1 14 7 27 14 NW 1018,7 20 0 0,0
21.10.2019 08:00:00 18,7 15,6 17,7 21,0 22,1 13 7 30 16 NNW 1017,1 30 0 0,0
21.10.2019 07:00:00 18,3 15,7 17,4 21,0 22,1 11 6 23 12 NNW 1016,4 25 0 0,0
21.10.2019 06:00:00 17,9 16,2 17,0 21,0 22,1 16 9 21 11 N 1016,0 15 0 0,0
21.10.2019 05:00:00 17,7 16,4 17,0 21,0 22,1 11 6 25 14 N 1016,9 15 0 0,0
21.10.2019 04:00:00 17,7 16,6 16,9 21,0 22,1 13 7 20 11 N 1017,2 15 0 0,6
21.10.2019 03:00:00 17,8 16,5 17,0 21,0 22,2 12 7 38 21 NW 1017,3 1,8 0 5,1
21.10.2019 02:00:00 18,1 16,3 17,1 21,0 22,1 13 7 20 11 WNW 1016,4 13 0 0,4
21.10.2019 01:00:00 18,2 16,5 17,5 21,0 22,2 13 7 20 11 NNW 1015,9 25 0 0,0
21.10.2019 00:00:00 18,4 16,7 17,5 20,9 22,1 13 7 25 13 NNW 1015,9 25 0 0,0
20.10.2019 23:00:00 18,9 17,2 18,0 20,9 22,1 17 9 29 16 NNE 1016,5 15 0 0,6
20.10.2019 22:00:00 18,8 17,5 17,9 20,9 22,2 12 7 16 9 NNE 1017,2 7 0 1,6
20.10.2019 21:00:00 18,9 17,0 17,9 21,0 22,2 7 4 20 11 NW 1016,8 8 0 0,4
20.10.2019 20:00:00 19,6 17,4 18,3 21,0 22,2 11 6 26 14 N 1015,5 20 0 0,0
20.10.2019 19:00:00 19,4 17,5 17,6 20,9 22,1 13 7 34 19 NNE 1014,9 15 0 2,9
20.10.2019 18:00:00 19,7 16,2 17,8 21,0 22,2 18 10 36 19 WSW 1015,3 0,8 0 1,6
20.10.2019 17:00:00 21,5 19,2 21,3 21,0 22,2 18 10 31 17 ENE 1014,9 15 0 0,0
20.10.2019 16:00:00 21,4 18,8 21,4 21,0 22,2 29 15 41 22 ENE 1014,6 15 0 0,0
20.10.2019 15:00:00 21,2 18,8 21,3 21,0 22,2 35 19 48 26 E 1014,1 15 0 0,0
20.10.2019 14:00:00 21,1 18,7 21,3 21,0 22,2 39 21 47 26 ENE 1014,5 15 0 0,0
20.10.2019 13:00:00 21,3 18,5 21,5 21,0 22,2 37 20 55 30 ENE 1014,4 30 15 0,0
20.10.2019 12:00:00 21,4 18,2 21,3 20,9 22,2 31 17 51 28 ENE 1014,7 30 0 0,0
20.10.2019 11:00:00 21,2 18,2 21,1 20,9 22,2 42 23 56 30 E 1014,5 30 8 0,0
20.10.2019 10:00:00 20,8 17,6 18,8 21,0 22,2 34 19 48 26 ENE 1014,8 30 0 0,0
20.10.2019 09:00:00 18,4 14,7 17,0 21,0 22,2 14 7 26 14 NE 1014,3 30 0 0,0
20.10.2019 08:00:00 17,6 14,5 16,9 20,9 22,2 12 6 18 10 NNW 1013,8 30 0 0,0
20.10.2019 07:00:00 17,9 14,8 17,4 20,9 22,2 15 8 21 11 NNW 1014,1 20 0 0,0
20.10.2019 06:00:00 17,9 15,2 17,5 21,0 22,2 8 4 17 9 NW 1014,0 20 0 0,0
20.10.2019 05:00:00 17,8 15,8 17,2 20,9 22,2 14 8 19 10 N 1013,7 20 0 0,0
20.10.2019 04:00:00 17,6 16,3 17,2 20,9 22,2 12 6 19 10 NNW 1013,6 20 0 0,0
20.10.2019 03:00:00 18,3 16,8 17,7 21,0 22,3 6 4 20 11 N 1014,7 20 0 0,0
20.10.2019 02:00:00 19,8 17,9 19,1 20,9 22,2 15 8 19 10 ENE 1014,6 20 0 0,0
20.10.2019 01:00:00 19,9 18,4 18,7 20,9 22,2 10 6 14 7 E 1014,6 20 0 0,0
20.10.2019 00:00:00 20,0 18,5 19,4 20,9 22,3 13 7 19 10 SE 1014,7 15 0 0,0
19.10.2019 23:00:00 20,3 18,6 19,4 20,9 22,3 13 7 23 13 SSE 1014,6 15 0 0,0
19.10.2019 22:00:00 20,3 18,6 19,8 21,0 22,3 21 12 27 14 SSE 1014,3 15 0 0,0
19.10.2019 21:00:00 20,3 18,6 20,0 21,0 22,3 20 11 24 13 SSE 1014,1 15 0 0,0
19.10.2019 20:00:00 20,4 18,9 20,0 21,0 22,3 19 10 29 16 S 1014,0 15 0 0,0
19.10.2019 19:00:00 20,5 19,0 20,2 21,0 22,3 23 12 31 17 S 1013,6 12 0 0,0
19.10.2019 18:00:00 20,7 19,0 20,7 21,0 22,3 23 12 32 17 S 1013,4 12 0 0,0
19.10.2019 17:00:00 20,9 19,2 21,6 21,0 22,3 26 14 34 19 S 1013,3 15 11 0,0
19.10.2019 16:00:00 20,9 19,0 21,9 21,0 22,3 26 14 35 19 S 1013,3 8 18 0,0
19.10.2019 15:00:00 21,2 18,9 19,5 21,0 22,3 26 14 34 18 SSW 1013,6 20 2 0,0
19.10.2019 14:00:00 18,7 16,1 18,2 21,0 22,3 7 4 26 14 NNW 1013,8 20 13 0,0
19.10.2019 13:00:00 18,8 17,1 17,2 21,0 22,3 12 6 32 18 WNW 1014,2 15 0 0,0
19.10.2019 12:00:00 17,4 16,1 17,0 21,0 22,3 14 8 42 23 NNW 1014,1 15 0 0,2
19.10.2019 11:00:00 17,6 16,3 16,9 21,0 22,3 10 5 21 11 NNW 1014,2 7 0 3,9
19.10.2019 10:00:00 18,2 15,8 17,5 21,0 22,3 13 7 18 10 NNW 1014,5 20 2 0,0
19.10.2019 09:00:00 17,3 15,3 16,6 21,0 22,3 11 6 17 9 NNW 1014,6 20 0 0,0
19.10.2019 08:00:00 17,0 15,3 16,2 21,0 22,4 12 6 16 9 NNW 1014,0 20 0 0,0
19.10.2019 07:00:00 16,8 15,1 16,1 21,0 22,3 12 6 20 11 NNW 1014,1 30 0 0,6
19.10.2019 06:00:00 16,7 15,2 16,2 21,0 22,3 13 7 18 10 NNW 1014,3 20 0 0,2
19.10.2019 05:00:00 16,9 15,1 16,1 21,0 22,3 13 7 26 14 NNW 1014,5 30 0 0,6
19.10.2019 04:00:00 17,1 15,1 16,6 21,0 22,4 10 5 14 7 NNW 1014,9 30 0 0,0
19.10.2019 03:00:00 17,2 15,2 16,6 21,0 22,4 8 4 13 7 NW 1015,5 30 0 0,0
19.10.2019 02:00:00 17,0 15,0 16,6 21,1 22,4 5 3 14 8 N 1015,5 30 0 0,0
19.10.2019 01:00:00 17,1 15,3 16,6 21,0 22,4 10 6 13 7 NNW 1015,7 30 0 0,0
19.10.2019 00:00:00 17,1 15,3 16,3 21,1 22,4 8 4 11 6 NW 1016,2 30 0 0,0
18.10.2019 23:00:00 17,2 15,4 16,4 21,0 22,4 7 4 14 8 NNW 1016,4 30 0 0,0
18.10.2019 22:00:00 17,4 15,6 16,8 21,1 22,4 7 4 15 8 NW 1016,6 30 0 0,0
18.10.2019 21:00:00 17,6 15,9 16,8 21,1 22,4 11 6 16 9 NNW 1016,5 15 0 0,0
18.10.2019 20:00:00 17,5 15,3 16,9 21,1 22,4 12 6 22 12 NNE 1016,5 49 0 0,0
18.10.2019 19:00:00 17,6 16,3 16,2 21,1 22,4 16 9 28 15 NNE 1016,3 15 0 6,3
18.10.2019 18:00:00 18,2 16,2 17,2 21,1 22,4 10 5 13 7 NNE 1016,4 8 0 2,6
18.10.2019 17:00:00 19,0 16,2 17,3 21,1 22,4 2 1 8 4 E 1016,8 8 0 0,6
18.10.2019 16:00:00 19,4 16,2 18,2 21,2 22,4 6 3 14 8 S 1016,7 20 0 0,0
18.10.2019 15:00:00 20,4 15,4 21,7 21,2 22,5 8 4 10 6 SSE 1016,8 30 4 0,0
18.10.2019 14:00:00 20,7 14,8 23,3 21,2 22,4 4 2 7 4 SSE 1017,4 30 0 0,0
18.10.2019 13:00:00 20,9 13,8 22,6 21,2 22,4 4 2 9 5 S 1017,9 30 5 0,0
18.10.2019 12:00:00 20,2 12,4 20,1 21,2 22,5 7 4 17 9 NNW 1018,2 30 0 0,0
18.10.2019 11:00:00 18,9 11,9 19,1 21,2 22,5 10 5 17 9 NW 1018,6 30 4 0,0
18.10.2019 10:00:00 17,9 11,9 18,5 21,2 22,5 13 7 26 14 NNW 1018,5 40 26 0,0
18.10.2019 09:00:00 16,4 11,5 14,7 21,2 22,5 16 9 28 15 NNW 1018,2 40 36 0,0
18.10.2019 08:00:00 15,3 11,3 14,5 21,2 22,5 16 9 22 12 NNW 1017,6 40 0 0,0
18.10.2019 07:00:00 15,4 11,6 14,8 21,2 22,5 15 8 25 13 NNW 1017,7 40 0 0,0
18.10.2019 06:00:00 15,3 11,5 14,7 21,2 22,5 14 7 22 12 NNW 1017,6 40 0 0,0
18.10.2019 05:00:00 15,7 11,9 15,0 21,3 22,5 19 10 26 14 NNW 1017,9 40 0 0,0
18.10.2019 04:00:00 16,0 12,2 15,3 21,2 22,5 15 8 21 11 NNW 1017,9 40 0 0,0
18.10.2019 03:00:00 16,1 12,3 15,5 21,2 22,5 15 8 22 12 NNW 1018,5 40 0 0,0
18.10.2019 02:00:00 16,2 12,6 15,6 21,2 22,5 18 10 22 12 NNW 1019,0 40 0 0,0
18.10.2019 01:00:00 16,2 12,9 15,3 21,2 22,5 16 9 22 12 NNW 1019,0 40 0 0,0
18.10.2019 00:00:00 16,2 13,1 15,4 21,3 22,5 13 7 21 11 NNW 1019,0 40 0 0,0
17.10.2019 23:00:00 16,7 13,6 15,7 21,3 22,5 14 8 21 12 NNW 1019,4 40 0 0,0
17.10.2019 22:00:00 17,3 14,0 16,3 21,3 22,5 11 6 18 10 NNW 1019,1 40 0 0,0
17.10.2019 21:00:00 17,7 13,6 16,5 21,3 22,5 4 2 10 5 W 1019,0 40 0 0,0
17.10.2019 20:00:00 18,5 13,8 17,6 21,3 22,5 6 3 10 6 SW 1018,8 40 0 0,0
17.10.2019 19:00:00 18,9 14,4 18,4 21,3 22,5 9 5 17 9 W 1018,5 40 0 0,0
17.10.2019 18:00:00 19,5 15,6 19,2 21,3 22,6 13 7 16 9 WSW 1018,7 40 0 0,0
17.10.2019 17:00:00 19,8 15,6 20,2 21,3 22,6 11 6 18 10 SW 1018,7 40 0 0,0

tt = Température de l'air
td = dewpoint
tt 5cm = Température de l'air 5cm
tt -20cm = Température de l'air -20cm
tt -100cm = Température de l'air -100cm
ff = Vitesse du vent
fx = gusts
dd = Direction du vent
ppp = reduced air pressure
vv = visibility
sd = Ensoleillement
rr = Quantités de précipitations

stations d'obs. à proximité